Location: Roswell
(33.3943°N, 104.5230°W)
Time: 08:48:23
(UTC+00:00)

Tiros 1 - Pass Details

Date: 10 November 2024
Orbit: 622 x 653 km, 48.4° (Epoch: 06 December)

Event Time Altitude Azimuth Distance (km) Brightness Sun altitude
Rises 00:27:59 0° 230° (SW) 2,932 11.9 -6.6°
Reaches altitude 10° 00:30:18 10° 230° (SW) 2,031 11.0 -7.0°
Maximum altitude 00:35:00 89° 319° (NW) 651 7.2 -8.0°
Drops below altitude 10° 00:39:45 10° 51° (NE) 2,054 9.2 -8.9°
Enters shadow 00:39:58 - 51° (NE) 2,137 9.3 -9.0°
